TimeCST,TemperatureF,Dew PointF,Humidity,Sea Level PressureIn,VisibilityMPH,Wind Direction,Wind SpeedMPH,Gust SpeedMPH,PrecipitationIn,Events,Conditions,WindDirDegrees,DateUTC
12:15 AM,57.4,45.5,65,29.93,10.0,South,16.1,24.2,N/A,,Clear,190,2013-12-19 06:15:00
12:35 AM,56.8,45.5,66,29.92,10.0,South,18.4,24.2,N/A,,Clear,190,2013-12-19 06:35:00
12:55 AM,56.8,45.7,66,29.91,10.0,South,19.6,27.6,N/A,,Clear,190,2013-12-19 06:55:00
1:15 AM,56.3,45.7,68,29.91,10.0,SSW,17.3,23.0,N/A,,Clear,200,2013-12-19 07:15:00
1:35 AM,56.5,45.9,68,29.91,10.0,South,18.4,23.0,N/A,,Clear,190,2013-12-19 07:35:00
1:55 AM,56.8,46.4,68,29.90,10.0,South,21.9,27.6,N/A,,Clear,190,2013-12-19 07:55:00
2:15 AM,56.1,46.4,70,29.90,10.0,South,15.0,21.9,N/A,,Clear,190,2013-12-19 08:15:00
2:35 AM,55.8,46.6,71,29.90,10.0,South,17.3,25.3,N/A,,Clear,190,2013-12-19 08:35:00
2:55 AM,55.8,47.3,73,29.89,10.0,South,17.3,25.3,N/A,,Clear,190,2013-12-19 08:55:00
3:15 AM,55.4,47.3,74,29.88,10.0,South,18.4,26.5,N/A,,Clear,190,2013-12-19 09:15:00
3:35 AM,55.4,47.5,75,29.88,10.0,South,18.4,24.2,N/A,,Clear,190,2013-12-19 09:35:00
3:55 AM,55.4,47.8,76,29.87,10.0,South,18.4,24.2,N/A,,Clear,190,2013-12-19 09:55:00
4:15 AM,55.4,48.4,77,29.87,10.0,South,18.4,24.2,N/A,,Clear,190,2013-12-19 10:15:00
4:35 AM,55.6,48.9,78,29.86,10.0,South,13.8,21.9,N/A,,Clear,190,2013-12-19 10:35:00
4:55 AM,55.6,49.1,79,29.85,10.0,South,15.0,21.9,N/A,,Clear,180,2013-12-19 10:55:00
5:15 AM,55.4,49.3,80,29.84,10.0,South,15.0,21.9,N/A,,Clear,180,2013-12-19 11:15:00
5:35 AM,55.8,49.6,80,29.84,10.0,South,15.0,20.7,N/A,,Clear,190,2013-12-19 11:35:00
5:55 AM,55.6,49.6,80,29.83,10.0,South,15.0,20.7,N/A,,Clear,180,2013-12-19 11:55:00
6:15 AM,55.8,50.0,81,29.83,10.0,South,13.8,19.6,N/A,,Clear,190,2013-12-19 12:15:00
6:35 AM,55.6,50.0,81,29.83,10.0,South,13.8,-,N/A,,Clear,190,2013-12-19 12:35:00
6:55 AM,55.9,50.4,82,29.83,10.0,South,13.8,19.6,N/A,,Scattered Clouds,190,2013-12-19 12:55:00
7:15 AM,55.6,50.4,83,29.84,10.0,South,13.8,19.6,N/A,,Clear,190,2013-12-19 13:15:00
7:35 AM,56.3,50.7,82,29.84,10.0,South,13.8,-,N/A,,Clear,190,2013-12-19 13:35:00
7:55 AM,56.7,50.9,81,29.84,10.0,North,-9999.0,-,N/A,,Clear,0,2013-12-19 13:55:00
8:15 AM,57.2,51.1,80,29.84,10.0,South,9.2,18.4,N/A,,Clear,190,2013-12-19 14:15:00
8:35 AM,58.3,51.4,78,29.83,10.0,South,12.7,20.7,N/A,,Clear,190,2013-12-19 14:35:00
8:55 AM,59.5,51.6,75,29.84,10.0,South,15.0,21.9,N/A,,Clear,190,2013-12-19 14:55:00
9:15 AM,60.6,51.8,73,29.84,10.0,SSW,16.1,23.0,N/A,,Clear,200,2013-12-19 15:15:00
9:35 AM,62.1,52.0,70,29.83,10.0,SSW,16.1,25.3,N/A,,Clear,200,2013-12-19 15:35:00
9:55 AM,63.9,52.0,65,29.84,10.0,SSW,19.6,26.5,N/A,,Clear,200,2013-12-19 15:55:00
10:15 AM,65.1,51.8,62,29.84,10.0,SSW,23.0,31.1,N/A,,Scattered Clouds,210,2013-12-19 16:15:00
10:35 AM,66.2,51.4,59,29.84,10.0,SSW,18.4,32.2,N/A,,Clear,200,2013-12-19 16:35:00
10:55 AM,66.9,51.3,57,29.83,10.0,SSW,23.0,35.7,N/A,,Clear,200,2013-12-19 16:55:00
11:15 AM,68.0,51.1,55,29.83,7.0,SSW,26.5,31.1,N/A,,Clear,200,2013-12-19 17:15:00
11:35 AM,69.8,51.1,51,29.82,10.0,SSW,24.2,28.8,N/A,,Clear,210,2013-12-19 17:35:00
11:55 AM,70.0,50.9,51,29.81,7.0,SSW,23.0,31.1,N/A,,Clear,200,2013-12-19 17:55:00
12:15 PM,70.7,50.4,48,29.79,10.0,SSW,23.0,29.9,N/A,,Clear,200,2013-12-19 18:15:00
12:35 PM,70.5,50.0,48,29.78,10.0,SSW,21.9,27.6,N/A,,Clear,200,2013-12-19 18:35:00
12:55 PM,72.0,50.0,46,29.76,10.0,SSW,21.9,28.8,N/A,,Clear,210,2013-12-19 18:55:00
1:15 PM,71.8,50.0,46,29.75,10.0,SSW,20.7,26.5,N/A,,Clear,210,2013-12-19 19:15:00
1:35 PM,71.6,50.0,46,29.75,10.0,SSW,18.4,25.3,N/A,,Clear,210,2013-12-19 19:35:00
1:55 PM,72.3,50.2,46,29.74,10.0,SSW,18.4,24.2,N/A,,Clear,210,2013-12-19 19:55:00
2:15 PM,72.5,50.0,45,29.74,10.0,SSW,19.6,26.5,N/A,,Clear,210,2013-12-19 20:15:00
2:35 PM,72.5,50.2,45,29.73,10.0,SSW,18.4,24.2,N/A,,Clear,200,2013-12-19 20:35:00
2:55 PM,72.9,50.0,44,29.73,10.0,SSW,17.3,-,N/A,,Clear,210,2013-12-19 20:55:00
3:15 PM,73.0,49.6,44,29.72,10.0,SSW,18.4,-,N/A,,Clear,200,2013-12-19 21:15:00
3:35 PM,72.5,49.6,44,29.71,10.0,SSW,20.7,26.5,N/A,,Clear,200,2013-12-19 21:35:00
3:55 PM,72.5,50.2,45,29.72,10.0,SSW,15.0,24.2,N/A,,Clear,200,2013-12-19 21:55:00
4:15 PM,72.3,50.5,46,29.71,10.0,SSW,12.7,19.6,N/A,,Clear,200,2013-12-19 22:15:00
4:35 PM,71.4,50.7,48,29.71,10.0,South,15.0,23.0,N/A,,Clear,190,2013-12-19 22:35:00
4:55 PM,70.9,51.4,50,29.71,10.0,South,15.0,25.3,N/A,,Clear,180,2013-12-19 22:55:00
5:15 PM,69.3,51.8,54,29.72,10.0,South,12.7,24.2,N/A,,Clear,190,2013-12-19 23:15:00
5:35 PM,67.8,51.8,56,29.71,10.0,South,17.3,24.2,N/A,,Clear,190,2013-12-19 23:35:00
5:55 PM,66.2,51.4,59,29.72,10.0,South,15.0,20.7,N/A,,Clear,180,2013-12-19 23:55:00
6:15 PM,65.5,52.0,62,29.73,10.0,South,15.0,20.7,N/A,,Clear,180,2013-12-20 00:15:00
6:35 PM,64.8,52.2,64,29.73,10.0,South,17.3,21.9,N/A,,Clear,180,2013-12-20 00:35:00
6:55 PM,64.6,52.2,64,29.73,10.0,South,18.4,24.2,N/A,,Clear,180,2013-12-20 00:55:00
7:15 PM,64.2,52.2,65,29.73,10.0,South,17.3,24.2,N/A,,Clear,180,2013-12-20 01:15:00
7:35 PM,63.7,52.3,67,29.74,10.0,South,17.3,25.3,N/A,,Clear,190,2013-12-20 01:35:00
7:55 PM,63.0,52.5,69,29.74,10.0,South,15.0,21.9,N/A,,Clear,190,2013-12-20 01:55:00
8:15 PM,62.2,52.3,70,29.74,10.0,South,16.1,24.2,N/A,,Clear,190,2013-12-20 02:15:00
8:35 PM,62.4,52.2,69,29.74,10.0,South,17.3,25.3,N/A,,Clear,190,2013-12-20 02:35:00
8:55 PM,61.9,52.3,71,29.74,10.0,South,17.3,23.0,N/A,,Clear,190,2013-12-20 02:55:00
9:15 PM,61.7,52.7,72,29.74,10.0,South,16.1,25.3,N/A,,Clear,190,2013-12-20 03:15:00
9:35 PM,61.2,52.7,74,29.74,10.0,South,15.0,-,N/A,,Clear,190,2013-12-20 03:35:00
9:55 PM,61.0,52.7,74,29.74,10.0,South,16.1,20.7,N/A,,Clear,190,2013-12-20 03:55:00
10:15 PM,61.0,52.3,73,29.74,10.0,South,15.0,23.0,N/A,,Clear,190,2013-12-20 04:15:00
10:35 PM,60.6,52.3,74,29.74,10.0,South,12.7,-,N/A,,Clear,190,2013-12-20 04:35:00
10:55 PM,60.4,52.7,76,29.74,10.0,SSW,12.7,-,N/A,,Clear,200,2013-12-20 04:55:00
11:15 PM,60.3,52.7,76,29.74,10.0,South,15.0,-,N/A,,Clear,190,2013-12-20 05:15:00
11:35 PM,59.5,52.7,78,29.74,10.0,SSW,12.7,18.4,N/A,,Clear,200,2013-12-20 05:35:00
11:55 PM,59.2,52.7,79,29.73,10.0,South,10.4,-,N/A,,Clear,190,2013-12-20 05:55:00